Retour au catalogue

STARLINK-3580

ActifCommunicationsVLEO
NORAD 51781·PAYLOAD·🇺🇸 United States

Lancé Feb 25, 2022 depuis Vandenberg Space Force Base

Loading…

Prochains Passages (prochaines 24 heures)

TLE

FraisSource: CelesTrak SupGP

Époque: Sep 15, 2026, 01:32 UTC

1 51781C 22017P   26258.06437500 -.00032619  00000+0 -93347-3 0  2581
2 51781  53.1573 197.3640 0001164  93.5071 334.1372 15.35408160    12

Suivez STARLINK-3580 en temps réel avec AllMySat

Download on the App Store